Hourly Data Report for November 01, 2020

OTTAWA INTL A
ONTARIO
Current Station Operator: NAVCAN

45°19'00.000" N
75°40'00.000" W
114.90 m
6106001
71628
YOW

Download Data

Hourly Data (November 2020)
Hourly Data Report for November 1, 2020
TIME Temp Definition
°C
Dew Point Definition
°C
Rel Hum Definition
%
Wind Dir Definition
10's deg

Wind Spd Definition
km/h
Visibility Definition
km
Stn Press Definition
kPa
Hmdx Definition


Wind Chill Definition


Weather Definition


00:00 -1.0 -3.7 82 14 15 24.1 100.57   -6 LegendNANA
01:00 0.1 -3.2 79 15 14 24.1 100.43     Clear
02:00 0.8 -2.6 78 16 13 24.1 100.35     LegendNANA
03:00 1.4 -2.4 76 16 16 24.1 100.21     LegendNANA
04:00 1.3 -2.3 77 16 20 24.1 100.08     Mostly Cloudy
05:00 1.9 -2.0 75 16 22 24.1 99.91     LegendNANA
06:00 2.2 -2.0 74 14 18 24.1 99.77     LegendNANA
07:00 2.8 -1.5 73 16 17 24.1 99.64     Cloudy
08:00 3.7 -0.9 72 15 14 24.1 99.54     LegendNANA
09:00 4.3 -0.3 72 13 19 24.1 99.32     LegendNANA
10:00 6.7 0.9 66 15 21 24.1 99.15     Cloudy
11:00 7.8 1.6 65 16 21 24.1 98.97     Rain Showers
12:00 6.5 4.5 87 15 24 24.1 98.79     Rain Showers
13:00 6.7 5.3 91 17 23 8.1 98.66     Rain,Fog
14:00 7.1 6.0 93 17 27 8.1 98.57     Rain,Fog
15:00 7.2 6.4 94 18 27 9.7 98.55     Rain,Fog
16:00 7.5 6.2 92 23 16 16.1 98.60     Rain
17:00 6.8 5.0 89 22 17 24.1 98.65     Rain
18:00 6.1 4.2 88 22 21 24.1 98.77     Rain
19:00 4.2 2.3 87 26 20 24.1 98.84     Rain
20:00 3.4 1.8 89 24 17 24.1 98.89     LegendNANA
21:00 2.7 0.9 88 24 17 24.1 98.87     LegendNANA
22:00 1.9 -0.1 87 24 19 24.1 98.85     Mainly Clear
23:00 1.6 -0.1 88 23 15 24.1 98.83     LegendNANA

Notes on Data Quality.

Legend

  • E = Estimated
  • M = Missing
  • NA = Not Available*
  • [empty] = Indicates an unobserved value
Date modified: